Find Starlink 37162

NORAD ID: 68262 Int'l Des: 2026-055 Owner: SPXS Country: US Constellation: starlink operational
LEOCIRCULAR

Live-Position

3D-Globus wird geladen...

Über Starlink 37162

Beschreibung wird geladen...

Nächste Überflüge

Passes for default location (London). Set your location on the main map for personalized predictions.

Höhenverlauf

Loading altitude history...

Zweizeiliger Elementsatz

1 68262U 26055A 26124.12301847 .00037484 00000-0 86590-3 0 9990
2 68262 53.1610 62.0961 0000684 58.2668 301.8404 15.42184787 8419
Epoch: 4. Mai 2026 • Age: 10 hours

Aktueller Status

Höhe 445.6 km
Geschwindigkeit 7.65 km/s
Subsatellitenpunkt 52.50°N, 110.97°E
Startdatum 19. März 2026
Alter 0.1 years
Typ internet

Technische Details

Klassifizierung Payload
Masse 575.00 kg
Trockenmasse 530.00 kg
Gesamtmasse 575.00 kg
Länge 0.30 m
Durchmesser 4.10 m
Spannweite 29.00 m
Form Box + pan
Hersteller SPXS
Bus-Typ Starlink V2MO
Phasenstatus In Orbit
Besitzer/Staat SPXS/US

Most Searched